Weather History for KLJF - February, 2013

Change the Weather History Date:

Wednesday, February 13, 2013

  Actual Average Record
Temperature  
Mean Temperature 26 °F -  
Max Temperature 35 °F 27 °F 47 °F (1990)
Min Temperature 17 °F 8 °F -18 °F (1951)
Degree Days  
Heating Degree Days 39    
Moisture  
Dew Point 26 °F    
Average Humidity 91    
Maximum Humidity 100    
Minimum Humidity 75    
Precipitation  
Precipitation 0.00 in - - ()
Sea Level Pressure  
Sea Level Pressure 29.66 in    
Wind  
Wind Speed 4 mph (West)    
Max Wind Speed 9 mph    
Max Gust Speed -    
Visibility 7 miles    
Events Rain , Snow    
Averages and records for this station are not official NWS values.
T = Trace of Precipitation, MM = Missing Value Source: NWS Daily Summary

Daily Weather History Graph

Daily Weather History Graph

Search for Another Location

Airport or City:

Trip Planner

Search our weather history database for the weather conditions in past years. The results will help you decide how hot, cold, wet, or windy it might be!

Date:

Astronomy

Feb. 13, 2013 Rise Set
Actual Time 7:21 AM CST 5:43 PM CST
Civil Twilight 6:51 AM CST 6:13 PM CST
Nautical Twilight 6:16 AM CST 6:48 PM CST
Astronomical Twilight 5:42 AM CST 7:22 PM CST
Moon 8:38 AM CST (2/13) 10:01 PM CST (2/13)
Length of Visible Light 11h 22m
Length of Day
10h 21m
Waxing Crescent, 14% of the Moon is Illuminated
Feb 13
Waxing Crescent
Feb 17
First Quarter
Feb 25
Full
Mar 4
Last Quarter
Mar 11
New

Hourly Weather History & Observations

Time (CST) Temp. Windchill Dew Point Humidity Pressure Visibility Wind Dir Wind Speed Gust Speed Precip Events Conditions
12:12 AM 21.2 °F 12.6 °F 19.4 °F 93% 29.79 in 10.0 mi West 6.9 mph - N/A   Overcast
12:33 AM 23.0 °F 14.7 °F 21.2 °F 93% 29.78 in 10.0 mi West 6.9 mph - N/A   Overcast
12:53 AM 23.0 °F 14.7 °F 21.2 °F 93% 29.78 in 10.0 mi West 6.9 mph - N/A   Overcast
1:12 AM 21.2 °F 13.6 °F 19.4 °F 93% 29.78 in 10.0 mi West 5.8 mph - N/A   Mostly Cloudy
1:33 AM 21.2 °F 12.6 °F 19.4 °F 93% 29.77 in 10.0 mi West 6.9 mph - N/A   Clear
1:53 AM 19.4 °F 12.8 °F 19.4 °F 100% 29.77 in 10.0 mi West 4.6 mph - N/A   Clear
2:12 AM 19.4 °F 11.5 °F 17.6 °F 93% 29.77 in 10.0 mi West 5.8 mph - N/A   Clear
2:33 AM 19.4 °F 11.5 °F 17.6 °F 93% 29.77 in 10.0 mi West 5.8 mph - N/A   Clear
2:53 AM 19.4 °F 12.8 °F 17.6 °F 93% 29.76 in 10.0 mi West 4.6 mph - N/A   Clear
3:12 AM 19.4 °F 10.4 °F 17.6 °F 93% 29.76 in 10.0 mi West 6.9 mph - N/A   Scattered Clouds
3:33 AM 19.4 °F - 17.6 °F 93% 29.75 in 10.0 mi Calm Calm - N/A   Mostly Cloudy
3:53 AM 17.6 °F 12.3 °F 17.6 °F 100% 29.76 in 10.0 mi West 3.5 mph - N/A   Mostly Cloudy
4:12 AM 19.4 °F 10.4 °F 19.4 °F 100% 29.76 in 10.0 mi West 6.9 mph - N/A   Mostly Cloudy
4:33 AM 21.2 °F 11.7 °F 21.2 °F 100% 29.75 in 10.0 mi West 8.1 mph - N/A   Overcast
4:53 AM 23.0 °F 15.8 °F 21.2 °F 93% 29.73 in 10.0 mi West 5.8 mph - N/A   Overcast
5:13 AM 24.8 °F 17.9 °F 21.2 °F 86% 29.73 in 10.0 mi West 5.8 mph - N/A   Overcast
5:33 AM 24.8 °F 19.1 °F 23.0 °F 93% 29.73 in 10.0 mi WSW 4.6 mph - N/A   Overcast
5:53 AM 24.8 °F 17.9 °F 23.0 °F 93% 29.72 in 10.0 mi West 5.8 mph - N/A   Overcast
6:13 AM 24.8 °F - 23.0 °F 93% 29.72 in 10.0 mi Calm Calm - N/A   Overcast
6:33 AM 24.8 °F - 23.0 °F 93% 29.71 in 10.0 mi Calm Calm - N/A   Overcast
6:52 AM 24.8 °F - 23.0 °F 93% 29.71 in 10.0 mi Calm Calm - N/A   Overcast
7:13 AM 24.8 °F - 21.2 °F 86% 29.71 in 10.0 mi Calm Calm - N/A   Overcast
7:33 AM 23.0 °F - 21.2 °F 93% 29.71 in 10.0 mi Calm Calm - N/A   Overcast
7:52 AM 24.8 °F - 21.2 °F 86% 29.70 in 10.0 mi Calm Calm - N/A   Overcast
8:12 AM 21.2 °F - 21.2 °F 100% 29.70 in 10.0 mi Calm Calm - N/A   Unknown
8:32 AM 23.0 °F 18.4 °F 21.2 °F 93% 29.69 in 10.0 mi SSW 3.5 mph - N/A   Unknown
8:53 AM 24.8 °F - 21.2 °F 86% 29.69 in 10.0 mi Calm Calm - N/A   Unknown
9:13 AM 24.8 °F 16.9 °F 21.2 °F 86% 29.70 in 10.0 mi West 6.9 mph - N/A   Unknown
9:32 AM 26.6 °F 21.2 °F 23.0 °F 86% 29.70 in 10.0 mi West 4.6 mph - N/A   Clear
9:53 AM 26.6 °F - 23.0 °F 86% 29.70 in 10.0 mi Calm Calm - N/A   Clear
10:13 AM 28.4 °F - 24.8 °F 86% 29.69 in 10.0 mi Calm Calm - N/A   Clear
10:32 AM 28.4 °F - 24.8 °F 86% 29.68 in 10.0 mi Calm Calm - N/A   Clear
10:53 AM 30.2 °F 26.7 °F 24.8 °F 80% 29.68 in 10.0 mi SSW 3.5 mph - N/A   Clear
11:13 AM 30.2 °F 25.4 °F 24.8 °F 80% 29.68 in 10.0 mi SW 4.6 mph - N/A   Clear
11:32 AM 30.2 °F - 24.8 °F 80% 29.68 in 10.0 mi Calm Calm - N/A   Scattered Clouds
11:53 AM 30.2 °F 26.7 °F 24.8 °F 80% 29.66 in 10.0 mi SW 3.5 mph - N/A   Scattered Clouds
12:13 PM 30.2 °F - 26.6 °F 86% 29.66 in 10.0 mi Calm Calm - N/A   Mostly Cloudy
12:32 PM 32.0 °F 27.5 °F 26.6 °F 80% 29.65 in 10.0 mi WSW 4.6 mph - N/A   Overcast
12:53 PM 33.8 °F 30.8 °F 26.6 °F 75% 29.64 in 10.0 mi SW 3.5 mph - N/A   Overcast
1:13 PM 33.8 °F 30.8 °F 26.6 °F 75% 29.63 in 10.0 mi SW 3.5 mph - N/A   Scattered Clouds
1:32 PM 33.8 °F 30.8 °F 26.6 °F 75% 29.62 in 10.0 mi SW 3.5 mph - N/A   Scattered Clouds
1:53 PM 35.6 °F - 28.4 °F 75% 29.62 in 10.0 mi Calm Calm - N/A   Clear
2:13 PM 35.6 °F 32.8 °F 28.4 °F 75% 29.62 in 10.0 mi SW 3.5 mph - N/A   Unknown
2:32 PM 35.6 °F 31.7 °F 28.4 °F 75% 29.62 in 10.0 mi SW 4.6 mph - N/A   Unknown
2:53 PM 35.6 °F 31.7 °F 28.4 °F 75% 29.62 in 10.0 mi WSW 4.6 mph - N/A   Clear
3:13 PM 35.6 °F - 30.2 °F 81% 29.62 in 7.0 mi Calm Calm - N/A Rain Light Rain
3:32 PM 35.6 °F - 30.2 °F 81% 29.61 in 4.0 mi Calm Calm - N/A   Overcast
3:53 PM 33.8 °F - 30.2 °F 87% 29.60 in 2.0 mi Calm Calm - N/A Snow Light Snow
4:13 PM 33.8 °F 29.6 °F 30.2 °F 87% 29.59 in 3.0 mi SSE 4.6 mph - N/A Rain Light Rain
4:33 PM 33.8 °F - 32.0 °F 93% 29.60 in 1.8 mi Calm Calm - N/A Snow Light Snow
4:53 PM 33.8 °F - 33.8 °F 100% 29.59 in 1.8 mi Calm Calm - N/A Snow Light Snow
5:12 PM 33.8 °F - 33.8 °F 100% 29.59 in 2.0 mi Calm Calm - N/A Snow Light Snow
5:33 PM 33.8 °F - 33.8 °F 100% 29.58 in 1.0 mi Calm Calm - N/A Snow Light Snow
5:53 PM 33.8 °F - 33.8 °F 100% 29.58 in 1.2 mi Calm Calm - N/A Snow Snow
6:12 PM 33.8 °F - 33.8 °F 100% 29.58 in 2.5 mi Calm Calm - N/A   Overcast
6:33 PM 33.8 °F - 33.8 °F 100% 29.58 in 3.0 mi Calm Calm - N/A Snow Light Snow
6:53 PM 33.8 °F - 33.8 °F 100% 29.57 in 2.0 mi Calm Calm - N/A   Overcast
7:12 PM 33.8 °F - 33.8 °F 100% 29.57 in 1.8 mi Calm Calm - N/A   Overcast
7:33 PM 33.8 °F - 33.8 °F 100% 29.56 in 1.5 mi Calm Calm - N/A   Overcast
7:53 PM 33.8 °F - 33.8 °F 100% 29.56 in 2.5 mi Calm Calm - N/A   Overcast
8:12 PM 33.8 °F - 33.8 °F 100% 29.56 in 2.0 mi Calm Calm - N/A Snow Light Snow
8:33 PM 33.8 °F - 33.8 °F 100% 29.56 in 5.0 mi Calm Calm - N/A   Unknown
8:53 PM 33.8 °F - 33.8 °F 100% 29.55 in 4.0 mi Calm Calm - N/A Snow Light Snow
9:12 PM 33.8 °F - 33.8 °F 100% 29.56 in 4.0 mi Calm Calm - N/A   Unknown
9:33 PM 33.8 °F - 33.8 °F 100% 29.56 in 4.0 mi Calm Calm - N/A Snow Light Snow
9:52 PM 33.8 °F 30.8 °F 33.8 °F 100% 29.56 in 4.0 mi NNW 3.5 mph - N/A   Overcast
10:13 PM 33.8 °F 27.7 °F 33.8 °F 100% 29.57 in 3.0 mi NNW 6.9 mph - N/A   Overcast
10:33 PM 33.8 °F 27.7 °F 33.8 °F 100% 29.58 in 1.5 mi North 6.9 mph - N/A Snow Light Snow
10:52 PM 32.0 °F 25.6 °F 32.0 °F 100% 29.58 in 1.2 mi North 6.9 mph - N/A Snow Snow
11:13 PM 32.0 °F 25.6 °F 32.0 °F 100% 29.59 in 1.8 mi North 6.9 mph - N/A   Overcast
11:33 PM 32.0 °F 24.2 °F 32.0 °F 100% 29.60 in 2.5 mi North 9.2 mph - N/A Snow Light Snow
11:52 PM 33.8 °F 27.0 °F 33.8 °F 100% 29.61 in 3.0 mi North 8.1 mph - N/A   Overcast